Вернуться в каталог

QZS-1R

АктивенНавигацияMEO
NORAD 49336·PAYLOAD·🇯🇵 Japan

Запущен Oct 26, 2021 с Tanegashima Space Center

Loading…

Ближайшие Пролёты (ближайшие 24 часа)

TLE

СвежийSource: CelesTrak SupGP

Эпоха: Sep 13, 2026, 00:00 UTC

1 49336C 21096A   26256.00000000 -.00000172  00000+0  00000+0 0  2569
2 49336  37.6435  78.2830 0743679 269.8649 137.9209  1.00288467    11

Отслеживайте QZS-1R в реальном времени с AllMySat

Download on the App Store